Time,TemperatureF,DewpointF,PressureIn,WindDirection,WindDirectionDegrees,WindSpeedMPH,WindSpeedGustMPH,Humidity,HourlyPrecipIn,Conditions,Clouds,dailyrainin,SoftwareType,DateUTC
2013-03-14 00:01:00,40.6,23.0,25.89,WNW,292,3.0,4.0,48,0.00,,,0.00,Rainwise IP-100,2013-03-14 06:01:00,
2013-03-14 00:06:00,40.3,24.0,25.89,WNW,292,3.7,4.4,50,0.00,,,0.00,Rainwise IP-100,2013-03-14 06:06:00,
2013-03-14 00:11:00,40.1,24.0,25.89,WNW,292,4.2,5.4,51,0.00,,,0.00,Rainwise IP-100,2013-03-14 06:11:00,
2013-03-14 00:16:00,39.3,23.0,25.89,WNW,292,4.9,5.8,51,0.00,,,0.00,Rainwise IP-100,2013-03-14 06:16:00,
2013-03-14 00:21:00,39.0,23.0,25.89,WNW,292,3.7,5.4,52,0.00,,,0.00,Rainwise IP-100,2013-03-14 06:21:00,
2013-03-14 00:26:00,38.7,24.0,25.89,NW,315,4.9,6.8,53,0.00,,,0.00,Rainwise IP-100,2013-03-14 06:26:00,
2013-03-14 00:31:00,38.3,23.0,25.89,WNW,292,5.8,8.2,54,0.00,,,0.00,Rainwise IP-100,2013-03-14 06:31:00,
2013-03-14 00:36:00,38.2,24.0,25.89,NW,315,5.8,9.1,55,0.00,,,0.00,Rainwise IP-100,2013-03-14 06:36:00,
2013-03-14 00:41:00,38.4,24.0,25.88,WNW,292,7.7,8.2,56,0.00,,,0.00,Rainwise IP-100,2013-03-14 06:41:00,
2013-03-14 00:46:00,37.8,24.0,25.88,NW,315,7.2,8.6,56,0.00,,,0.00,Rainwise IP-100,2013-03-14 06:46:00,
2013-03-14 00:51:00,37.1,24.0,25.88,WNW,292,4.9,9.3,58,0.00,,,0.00,Rainwise IP-100,2013-03-14 06:51:00,
2013-03-14 00:56:00,36.6,24.0,25.89,WNW,292,6.8,8.6,59,0.00,,,0.00,Rainwise IP-100,2013-03-14 06:56:00,
2013-03-14 01:01:00,36.1,24.0,25.89,NW,315,6.8,9.3,60,0.00,,,0.00,Rainwise IP-100,2013-03-14 07:01:00,
2013-03-14 01:06:00,35.9,24.0,25.88,WNW,292,7.0,9.6,61,0.00,,,0.00,Rainwise IP-100,2013-03-14 07:06:00,
2013-03-14 01:11:00,36.0,24.0,25.88,NW,315,7.0,9.3,61,0.00,,,0.00,Rainwise IP-100,2013-03-14 07:11:00,
2013-03-14 01:16:00,35.8,24.0,25.88,WNW,292,6.8,8.9,62,0.00,,,0.00,Rainwise IP-100,2013-03-14 07:16:00,
2013-03-14 01:21:00,35.8,24.0,25.88,WNW,292,5.1,8.2,62,0.00,,,0.00,Rainwise IP-100,2013-03-14 07:21:00,
2013-03-14 01:26:00,36.5,24.0,25.88,NW,315,6.3,10.5,61,0.00,,,0.00,Rainwise IP-100,2013-03-14 07:26:00,
2013-03-14 01:31:00,37.1,24.0,25.88,NW,315,4.9,9.8,61,0.00,,,0.00,Rainwise IP-100,2013-03-14 07:31:00,
2013-03-14 01:36:00,37.4,24.0,25.88,WNW,292,3.7,7.2,60,0.00,,,0.00,Rainwise IP-100,2013-03-14 07:36:00,
2013-03-14 01:41:00,37.4,24.0,25.88,WNW,292,5.4,7.7,60,0.00,,,0.00,Rainwise IP-100,2013-03-14 07:41:00,
2013-03-14 01:46:00,37.0,24.0,25.88,WNW,292,5.1,7.5,60,0.00,,,0.00,Rainwise IP-100,2013-03-14 07:46:00,
2013-03-14 01:51:00,36.6,24.0,25.89,WNW,292,4.4,8.2,61,0.00,,,0.00,Rainwise IP-100,2013-03-14 07:51:00,
2013-03-14 01:56:00,36.3,24.0,25.89,WNW,292,6.3,8.4,62,0.00,,,0.00,Rainwise IP-100,2013-03-14 07:56:00,
2013-03-14 02:01:00,35.9,24.0,25.89,WNW,292,3.5,6.5,62,0.00,,,0.00,Rainwise IP-100,2013-03-14 08:01:00,
2013-03-14 02:06:00,35.6,24.0,25.89,WNW,292,3.7,6.5,63,0.00,,,0.00,Rainwise IP-100,2013-03-14 08:06:00,
2013-03-14 02:11:00,35.6,24.0,25.89,WNW,292,5.8,5.8,64,0.00,,,0.00,Rainwise IP-100,2013-03-14 08:11:00,
2013-03-14 02:16:00,35.6,24.0,25.88,WNW,292,4.2,6.5,64,0.00,,,0.00,Rainwise IP-100,2013-03-14 08:16:00,
2013-03-14 02:22:00,35.5,24.0,25.89,WNW,292,4.4,5.8,64,0.00,,,0.00,Rainwise IP-100,2013-03-14 08:22:00,
2013-03-14 02:27:00,35.2,24.0,25.89,WNW,292,5.4,5.6,64,0.00,,,0.00,Rainwise IP-100,2013-03-14 08:27:00,
2013-03-14 02:32:00,34.9,24.0,25.88,WNW,292,2.6,6.3,65,0.00,,,0.00,Rainwise IP-100,2013-03-14 08:32:00,
2013-03-14 02:37:00,34.8,24.0,25.88,WNW,292,4.9,6.1,66,0.00,,,0.00,Rainwise IP-100,2013-03-14 08:37:00,
2013-03-14 02:42:00,34.8,24.0,25.88,West,270,3.0,6.3,66,0.00,,,0.00,Rainwise IP-100,2013-03-14 08:42:00,
2013-03-14 02:47:00,34.7,24.0,25.88,WNW,292,3.5,6.1,67,0.00,,,0.00,Rainwise IP-100,2013-03-14 08:47:00,
2013-03-14 02:52:00,34.4,24.0,25.88,WNW,292,5.1,6.8,67,0.00,,,0.00,Rainwise IP-100,2013-03-14 08:52:00,
2013-03-14 02:57:00,34.2,24.0,25.88,WNW,292,5.1,7.0,67,0.00,,,0.00,Rainwise IP-100,2013-03-14 08:57:00,
2013-03-14 03:02:00,34.2,24.0,25.88,WNW,292,6.5,7.5,67,0.00,,,0.00,Rainwise IP-100,2013-03-14 09:02:00,
2013-03-14 03:07:00,34.2,24.0,25.87,WNW,292,6.1,8.2,67,0.00,,,0.00,Rainwise IP-100,2013-03-14 09:07:00,
2013-03-14 03:12:00,34.0,26.0,25.87,WNW,292,9.1,9.1,68,0.00,,,0.00,Rainwise IP-100,2013-03-14 09:12:00,
2013-03-14 03:17:00,34.4,24.0,25.87,WNW,292,7.5,9.1,67,0.00,,,0.00,Rainwise IP-100,2013-03-14 09:17:00,
2013-03-14 03:22:00,34.9,24.0,25.87,WNW,292,7.5,7.7,67,0.00,,,0.00,Rainwise IP-100,2013-03-14 09:22:00,
2013-03-14 03:27:00,34.1,24.0,25.87,WNW,292,5.4,8.2,67,0.00,,,0.00,Rainwise IP-100,2013-03-14 09:27:00,
2013-03-14 03:32:00,33.4,24.0,25.87,WNW,292,4.9,8.2,68,0.00,,,0.00,Rainwise IP-100,2013-03-14 09:32:00,
2013-03-14 03:37:00,33.2,24.0,25.87,WNW,292,4.9,7.2,69,0.00,,,0.00,Rainwise IP-100,2013-03-14 09:37:00,
2013-03-14 03:42:00,33.1,24.0,25.87,WNW,292,6.3,7.5,70,0.00,,,0.00,Rainwise IP-100,2013-03-14 09:42:00,
2013-03-14 03:47:00,33.2,24.0,25.86,WNW,292,6.8,7.5,70,0.00,,,0.00,Rainwise IP-100,2013-03-14 09:47:00,
2013-03-14 03:52:00,33.4,24.0,25.86,WNW,292,5.1,7.0,71,0.00,,,0.00,Rainwise IP-100,2013-03-14 09:52:00,
2013-03-14 03:57:00,33.6,26.0,25.86,WNW,292,7.0,7.0,71,0.00,,,0.00,Rainwise IP-100,2013-03-14 09:57:00,
2013-03-14 04:02:00,33.9,26.0,25.86,WNW,292,5.6,7.0,70,0.00,,,0.00,Rainwise IP-100,2013-03-14 10:02:00,
2013-03-14 04:07:00,34.1,26.0,25.86,WNW,292,4.4,6.3,70,0.00,,,0.00,Rainwise IP-100,2013-03-14 10:07:00,
2013-03-14 04:12:00,34.1,26.0,25.86,WNW,292,5.8,6.3,70,0.00,,,0.00,Rainwise IP-100,2013-03-14 10:12:00,
2013-03-14 04:17:00,34.0,26.0,25.86,WNW,292,5.6,7.0,70,0.00,,,0.00,Rainwise IP-100,2013-03-14 10:17:00,
2013-03-14 04:22:00,34.0,26.0,25.86,WNW,292,6.1,7.2,70,0.00,,,0.00,Rainwise IP-100,2013-03-14 10:22:00,
2013-03-14 04:27:00,33.7,26.0,25.86,NW,315,4.7,7.7,70,0.00,,,0.00,Rainwise IP-100,2013-03-14 10:27:00,
2013-03-14 04:32:00,33.2,24.0,25.86,WNW,292,4.9,6.5,70,0.00,,,0.00,Rainwise IP-100,2013-03-14 10:32:00,
2013-03-14 04:37:00,32.7,24.0,25.86,West,270,4.9,6.8,71,0.00,,,0.00,Rainwise IP-100,2013-03-14 10:37:00,
2013-03-14 04:42:00,32.5,26.0,25.86,WNW,292,4.9,7.2,72,0.00,,,0.00,Rainwise IP-100,2013-03-14 10:42:00,
2013-03-14 04:47:00,32.6,26.0,25.86,West,270,4.0,6.8,72,0.00,,,0.00,Rainwise IP-100,2013-03-14 10:47:00,
2013-03-14 04:52:00,32.9,26.0,25.86,West,270,5.1,6.8,72,0.00,,,0.00,Rainwise IP-100,2013-03-14 10:52:00,
2013-03-14 04:57:00,33.3,26.0,25.86,West,270,4.0,8.6,72,0.00,,,0.00,Rainwise IP-100,2013-03-14 10:57:00,
2013-03-14 05:02:00,33.5,26.0,25.87,WNW,292,3.7,7.7,72,0.00,,,0.00,Rainwise IP-100,2013-03-14 11:02:00,
2013-03-14 05:07:00,33.5,26.0,25.87,WNW,292,5.8,6.5,72,0.00,,,0.00,Rainwise IP-100,2013-03-14 11:07:00,
2013-03-14 05:12:00,33.2,24.0,25.87,West,270,4.9,8.2,71,0.00,,,0.00,Rainwise IP-100,2013-03-14 11:12:00,
2013-03-14 05:17:00,32.7,26.0,25.87,WNW,292,3.5,7.7,72,0.00,,,0.00,Rainwise IP-100,2013-03-14 11:17:00,
2013-03-14 05:22:00,32.4,24.0,25.87,WNW,292,5.6,6.5,72,0.00,,,0.00,Rainwise IP-100,2013-03-14 11:22:00,
2013-03-14 05:27:00,32.2,24.0,25.87,WNW,292,3.5,7.5,72,0.00,,,0.00,Rainwise IP-100,2013-03-14 11:27:00,
2013-03-14 05:32:00,32.1,24.0,25.87,WNW,292,7.7,7.7,72,0.00,,,0.00,Rainwise IP-100,2013-03-14 11:32:00,
2013-03-14 05:37:00,32.2,24.0,25.88,WNW,292,6.1,9.3,73,0.00,,,0.00,Rainwise IP-100,2013-03-14 11:37:00,
2013-03-14 05:42:00,32.4,24.0,25.88,WNW,292,7.2,7.2,73,0.00,,,0.00,Rainwise IP-100,2013-03-14 11:42:00,
2013-03-14 05:47:00,32.3,24.0,25.88,WNW,292,5.8,8.9,73,0.00,,,0.00,Rainwise IP-100,2013-03-14 11:47:00,
2013-03-14 05:52:00,32.1,24.0,25.88,NW,315,5.4,8.4,73,0.00,,,0.00,Rainwise IP-100,2013-03-14 11:52:00,
2013-03-14 05:57:00,31.8,24.0,25.88,NW,315,7.2,10.3,74,0.00,,,0.00,Rainwise IP-100,2013-03-14 11:57:00,
2013-03-14 06:02:00,32.2,24.0,25.89,WNW,292,7.0,10.3,74,0.00,,,0.00,Rainwise IP-100,2013-03-14 12:02:00,
2013-03-14 06:07:00,33.2,26.0,25.88,WNW,292,6.3,10.0,74,0.00,,,0.00,Rainwise IP-100,2013-03-14 12:07:00,
2013-03-14 06:12:00,33.8,26.0,25.89,WNW,292,8.9,10.3,72,0.00,,,0.00,Rainwise IP-100,2013-03-14 12:12:00,
2013-03-14 06:17:00,33.7,26.0,25.89,West,270,2.6,11.4,72,0.00,,,0.00,Rainwise IP-100,2013-03-14 12:17:00,
2013-03-14 06:22:00,33.0,26.0,25.89,WNW,292,5.8,7.9,73,0.00,,,0.00,Rainwise IP-100,2013-03-14 12:22:00,
2013-03-14 06:27:00,32.4,24.0,25.89,WNW,292,2.6,7.0,74,0.00,,,0.00,Rainwise IP-100,2013-03-14 12:27:00,
2013-03-14 06:32:00,32.4,24.0,25.89,WNW,292,4.9,5.8,74,0.00,,,0.00,Rainwise IP-100,2013-03-14 12:32:00,
2013-03-14 06:37:00,32.7,26.0,25.89,WNW,292,7.2,7.2,75,0.00,,,0.00,Rainwise IP-100,2013-03-14 12:37:00,
2013-03-14 06:42:00,33.0,26.0,25.89,WNW,292,4.0,8.2,74,0.00,,,0.00,Rainwise IP-100,2013-03-14 12:42:00,
2013-03-14 06:47:00,32.9,26.0,25.89,West,270,4.2,7.0,74,0.00,,,0.00,Rainwise IP-100,2013-03-14 12:47:00,
2013-03-14 06:52:00,32.6,26.0,25.89,WNW,292,7.0,7.2,74,0.00,,,0.00,Rainwise IP-100,2013-03-14 12:52:00,
2013-03-14 06:57:00,32.8,26.0,25.89,WNW,292,6.1,10.3,74,0.00,,,0.00,Rainwise IP-100,2013-03-14 12:57:00,
2013-03-14 07:03:00,33.0,26.0,25.90,West,270,4.4,8.9,74,0.00,,,0.00,Rainwise IP-100,2013-03-14 13:03:00,
2013-03-14 07:08:00,32.6,26.0,25.90,WNW,292,4.7,7.9,74,0.00,,,0.00,Rainwise IP-100,2013-03-14 13:08:00,
2013-03-14 07:13:00,32.0,24.0,25.90,West,270,4.0,7.0,74,0.00,,,0.00,Rainwise IP-100,2013-03-14 13:13:00,
2013-03-14 07:18:00,31.6,26.0,25.90,WNW,292,4.2,7.2,75,0.00,,,0.00,Rainwise IP-100,2013-03-14 13:18:00,
2013-03-14 07:23:00,31.6,26.0,25.90,WNW,292,3.3,7.0,76,0.00,,,0.00,Rainwise IP-100,2013-03-14 13:23:00,
2013-03-14 07:28:00,31.8,26.0,25.91,WNW,292,5.8,6.1,76,0.00,,,0.00,Rainwise IP-100,2013-03-14 13:28:00,
2013-03-14 07:33:00,32.2,26.0,25.91,WNW,292,4.2,7.5,75,0.00,,,0.00,Rainwise IP-100,2013-03-14 13:33:00,
2013-03-14 07:38:00,32.9,26.0,25.91,WNW,292,3.0,6.5,74,0.00,,,0.00,Rainwise IP-100,2013-03-14 13:38:00,
2013-03-14 07:43:00,33.6,28.0,25.92,WNW,292,2.6,4.0,74,0.00,,,0.00,Rainwise IP-100,2013-03-14 13:43:00,
2013-03-14 07:48:00,34.3,28.0,25.92,West,270,3.5,4.7,73,0.00,,,0.00,Rainwise IP-100,2013-03-14 13:48:00,
2013-03-14 07:53:00,35.0,26.0,25.92,West,270,2.1,4.9,72,0.00,,,0.00,Rainwise IP-100,2013-03-14 13:53:00,
2013-03-14 07:58:00,35.9,28.0,25.92,WNW,292,4.7,6.1,72,0.00,,,0.00,Rainwise IP-100,2013-03-14 13:58:00,
2013-03-14 08:03:00,37.9,29.0,25.93,WNW,292,8.6,9.3,70,0.00,,,0.00,Rainwise IP-100,2013-03-14 14:03:00,
2013-03-14 08:08:00,40.4,31.0,25.93,NNW,337,4.2,9.6,67,0.00,,,0.00,Rainwise IP-100,2013-03-14 14:08:00,
2013-03-14 08:13:00,41.8,31.0,25.93,WNW,292,5.8,7.2,64,0.00,,,0.00,Rainwise IP-100,2013-03-14 14:13:00,
2013-03-14 08:18:00,42.5,31.0,25.93,NW,315,3.0,7.7,62,0.00,,,0.00,Rainwise IP-100,2013-03-14 14:18:00,
2013-03-14 08:23:00,43.1,31.0,25.93,WNW,292,2.8,5.6,60,0.00,,,0.00,Rainwise IP-100,2013-03-14 14:23:00,
2013-03-14 08:28:00,43.8,31.0,25.94,NNW,337,2.1,4.4,59,0.00,,,0.00,Rainwise IP-100,2013-03-14 14:28:00,
2013-03-14 08:33:00,44.8,31.0,25.94,NW,315,2.1,3.3,57,0.00,,,0.00,Rainwise IP-100,2013-03-14 14:33:00,
2013-03-14 08:38:00,45.7,31.0,25.94,WSW,247,4.0,4.0,55,0.00,,,0.00,Rainwise IP-100,2013-03-14 14:38:00,
2013-03-14 08:47:00,46.1,31.0,25.94,West,270,3.5,4.2,54,0.00,,,0.00,Rainwise IP-100,2013-03-14 14:47:00,
2013-03-14 08:52:00,48.3,31.0,25.94,WNW,292,3.5,4.7,50,0.00,,,0.00,Rainwise IP-100,2013-03-14 14:52:00,
2013-03-14 08:57:00,49.5,31.0,25.94,WNW,292,0.0,4.2,48,0.00,,,0.00,Rainwise IP-100,2013-03-14 14:57:00,
2013-03-14 09:02:00,50.7,31.0,25.94,WSW,247,2.3,4.4,46,0.00,,,0.00,Rainwise IP-100,2013-03-14 15:02:00,
2013-03-14 09:07:00,51.9,32.0,25.94,WSW,247,1.6,5.4,45,0.00,,,0.00,Rainwise IP-100,2013-03-14 15:07:00,
2013-03-14 09:12:00,53.1,31.0,25.94,WNW,292,3.5,5.1,43,0.00,,,0.00,Rainwise IP-100,2013-03-14 15:12:00,
2013-03-14 09:17:00,54.4,32.0,25.94,WNW,292,3.7,5.8,41,0.00,,,0.00,Rainwise IP-100,2013-03-14 15:17:00,
2013-03-14 09:22:00,55.4,32.0,25.94,WNW,292,3.5,5.4,40,0.00,,,0.00,Rainwise IP-100,2013-03-14 15:22:00,
2013-03-14 09:27:00,56.5,32.0,25.94,NNW,337,2.8,4.0,39,0.00,,,0.00,Rainwise IP-100,2013-03-14 15:27:00,
2013-03-14 09:32:00,58.2,32.0,25.95,North,360,6.1,8.9,36,0.00,,,0.00,Rainwise IP-100,2013-03-14 15:32:00,
2013-03-14 09:37:00,60.3,31.0,25.94,NNE,22,1.6,7.9,33,0.00,,,0.00,Rainwise IP-100,2013-03-14 15:37:00,
2013-03-14 09:42:00,61.9,31.0,25.94,NNE,22,3.7,9.3,30,0.00,,,0.00,Rainwise IP-100,2013-03-14 15:42:00,
2013-03-14 09:47:00,62.3,31.0,25.94,NNW,337,12.4,12.4,29,0.00,,,0.00,Rainwise IP-100,2013-03-14 15:47:00,
2013-03-14 09:52:00,62.7,28.0,25.94,NNW,337,15.4,18.9,27,0.00,,,0.00,Rainwise IP-100,2013-03-14 15:52:00,
2013-03-14 09:57:00,63.2,28.0,25.94,North,360,13.8,18.4,26,0.00,,,0.00,Rainwise IP-100,2013-03-14 15:57:00,
2013-03-14 10:02:00,63.7,28.0,25.94,NNW,337,5.8,18.2,25,0.00,,,0.00,Rainwise IP-100,2013-03-14 16:02:00,
2013-03-14 10:07:00,64.1,28.0,25.94,NNW,337,13.3,20.5,25,0.00,,,0.00,Rainwise IP-100,2013-03-14 16:07:00,
2013-03-14 10:12:00,64.2,26.0,25.94,NNW,337,16.1,18.9,24,0.00,,,0.00,Rainwise IP-100,2013-03-14 16:12:00,
2013-03-14 10:18:00,64.0,26.0,25.94,NNW,337,11.0,23.1,24,0.00,,,0.00,Rainwise IP-100,2013-03-14 16:18:00,
2013-03-14 10:23:00,64.0,26.0,25.94,NNW,337,15.2,19.1,24,0.00,,,0.00,Rainwise IP-100,2013-03-14 16:23:00,
2013-03-14 10:28:00,64.4,28.0,25.94,North,360,7.2,17.5,24,0.00,,,0.00,Rainwise IP-100,2013-03-14 16:28:00,
2013-03-14 10:33:00,64.4,28.0,25.94,North,360,11.7,23.1,24,0.00,,,0.00,Rainwise IP-100,2013-03-14 16:33:00,
2013-03-14 10:38:00,64.2,26.0,25.94,NNW,337,15.4,19.1,24,0.00,,,0.00,Rainwise IP-100,2013-03-14 16:38:00,
2013-03-14 10:43:00,64.1,26.0,25.94,North,360,14.0,20.5,24,0.00,,,0.00,Rainwise IP-100,2013-03-14 16:43:00,
2013-03-14 10:48:00,63.9,26.0,25.94,NNW,337,13.8,21.7,24,0.00,,,0.00,Rainwise IP-100,2013-03-14 16:48:00,
2013-03-14 10:53:00,63.7,26.0,25.93,NNW,337,10.0,21.2,24,0.00,,,0.00,Rainwise IP-100,2013-03-14 16:53:00,
2013-03-14 10:58:00,63.9,26.0,25.93,North,360,10.3,21.2,24,0.00,,,0.00,Rainwise IP-100,2013-03-14 16:58:00,
2013-03-14 11:03:00,64.2,26.0,25.94,NW,315,13.8,20.8,24,0.00,,,0.00,Rainwise IP-100,2013-03-14 17:03:00,
2013-03-14 11:08:00,64.5,26.0,25.93,NNW,337,15.6,21.0,23,0.00,,,0.00,Rainwise IP-100,2013-03-14 17:08:00,
2013-03-14 11:13:00,65.1,26.0,25.93,NNW,337,15.9,18.7,23,0.00,,,0.00,Rainwise IP-100,2013-03-14 17:13:00,
2013-03-14 11:18:00,65.2,26.0,25.94,NNW,337,18.9,20.1,22,0.00,,,0.00,Rainwise IP-100,2013-03-14 17:18:00,
2013-03-14 11:23:00,65.3,26.0,25.93,North,360,14.9,21.0,22,0.00,,,0.00,Rainwise IP-100,2013-03-14 17:23:00,
2013-03-14 11:28:00,65.6,26.0,25.93,WNW,292,9.6,21.2,22,0.00,,,0.00,Rainwise IP-100,2013-03-14 17:28:00,
2013-03-14 11:33:00,65.6,26.0,25.94,North,360,7.2,16.3,22,0.00,,,0.00,Rainwise IP-100,2013-03-14 17:33:00,
2013-03-14 11:38:00,65.6,24.0,25.93,NNW,337,10.3,17.5,21,0.00,,,0.00,Rainwise IP-100,2013-03-14 17:38:00,
2013-03-14 11:43:00,66.2,26.0,25.93,NW,315,13.3,18.7,21,0.00,,,0.00,Rainwise IP-100,2013-03-14 17:43:00,
2013-03-14 11:48:00,66.4,26.0,25.93,North,360,6.8,16.3,21,0.00,,,0.00,Rainwise IP-100,2013-03-14 17:48:00,
2013-03-14 11:53:00,66.6,26.0,25.93,NNE,22,11.7,21.2,21,0.00,,,0.00,Rainwise IP-100,2013-03-14 17:53:00,
2013-03-14 11:58:00,66.7,24.0,25.93,NNW,337,13.5,18.7,20,0.00,,,0.00,Rainwise IP-100,2013-03-14 17:58:00,
2013-03-14 12:03:00,65.9,24.0,25.93,NNW,337,12.8,19.1,20,0.00,,,0.00,Rainwise IP-100,2013-03-14 18:03:00,
2013-03-14 12:08:00,65.7,24.0,25.93,NNW,337,9.1,17.5,20,0.00,,,0.00,Rainwise IP-100,2013-03-14 18:08:00,
2013-03-14 12:13:00,66.5,24.0,25.93,NNW,337,12.6,16.6,20,0.00,,,0.00,Rainwise IP-100,2013-03-14 18:13:00,
2013-03-14 12:18:00,66.9,24.0,25.92,NNW,337,8.6,16.1,20,0.00,,,0.00,Rainwise IP-100,2013-03-14 18:18:00,
2013-03-14 12:23:00,67.3,26.0,25.92,NNW,337,13.5,16.8,20,0.00,,,0.00,Rainwise IP-100,2013-03-14 18:23:00,
2013-03-14 12:28:00,67.5,24.0,25.92,NNW,337,9.1,20.1,19,0.00,,,0.00,Rainwise IP-100,2013-03-14 18:28:00,
2013-03-14 12:33:00,67.5,24.0,25.92,North,360,2.1,17.3,19,0.00,,,0.00,Rainwise IP-100,2013-03-14 18:33:00,
2013-03-14 12:38:00,67.6,24.0,25.92,North,360,7.5,21.2,19,0.00,,,0.00,Rainwise IP-100,2013-03-14 18:38:00,
2013-03-14 12:43:00,67.4,24.0,25.92,NW,315,11.4,18.2,19,0.00,,,0.00,Rainwise IP-100,2013-03-14 18:43:00,
2013-03-14 12:48:00,67.5,24.0,25.92,NNW,337,3.7,16.3,19,0.00,,,0.00,Rainwise IP-100,2013-03-14 18:48:00,
2013-03-14 12:53:00,67.9,23.0,25.91,NNE,22,13.8,17.5,18,0.00,,,0.00,Rainwise IP-100,2013-03-14 18:53:00,
2013-03-14 12:58:00,68.1,23.0,25.91,NNE,22,7.9,18.2,18,0.00,,,0.00,Rainwise IP-100,2013-03-14 18:58:00,
2013-03-14 13:03:00,68.0,23.0,25.91,North,360,7.0,15.9,18,0.00,,,0.00,Rainwise IP-100,2013-03-14 19:03:00,
2013-03-14 13:08:00,68.1,23.0,25.91,North,360,12.1,15.4,17,0.00,,,0.00,Rainwise IP-100,2013-03-14 19:08:00,
2013-03-14 13:13:00,68.4,23.0,25.91,North,360,3.0,16.8,17,0.00,,,0.00,Rainwise IP-100,2013-03-14 19:13:00,
2013-03-14 13:18:00,68.3,23.0,25.90,North,360,15.6,18.7,17,0.00,,,0.00,Rainwise IP-100,2013-03-14 19:18:00,
2013-03-14 13:23:00,68.4,23.0,25.90,NNW,337,3.5,18.7,17,0.00,,,0.00,Rainwise IP-100,2013-03-14 19:23:00,
2013-03-14 13:28:00,68.6,23.0,25.90,NW,315,14.2,17.0,17,0.00,,,0.00,Rainwise IP-100,2013-03-14 19:28:00,
2013-03-14 13:33:00,68.0,23.0,25.90,NNW,337,7.7,17.5,17,0.00,,,0.00,Rainwise IP-100,2013-03-14 19:33:00,
2013-03-14 13:38:00,68.0,23.0,25.89,NNW,337,10.3,15.4,17,0.00,,,0.00,Rainwise IP-100,2013-03-14 19:38:00,
2013-03-14 13:43:00,68.6,21.0,25.89,NNW,337,5.6,13.8,16,0.00,,,0.00,Rainwise IP-100,2013-03-14 19:43:00,
2013-03-14 13:48:00,69.0,21.0,25.88,NNW,337,7.7,16.3,16,0.00,,,0.00,Rainwise IP-100,2013-03-14 19:48:00,
2013-03-14 13:53:00,69.5,23.0,25.89,NNW,337,4.0,11.0,16,0.00,,,0.00,Rainwise IP-100,2013-03-14 19:53:00,
2013-03-14 13:58:00,69.8,21.0,25.88,NNW,337,11.0,19.8,15,0.00,,,0.00,Rainwise IP-100,2013-03-14 19:58:00,
2013-03-14 14:03:00,69.7,21.0,25.88,NNE,22,11.7,15.4,15,0.00,,,0.00,Rainwise IP-100,2013-03-14 20:03:00,
2013-03-14 14:09:00,69.6,21.0,25.87,NNW,337,11.7,17.7,15,0.00,,,0.00,Rainwise IP-100,2013-03-14 20:09:00,
2013-03-14 14:14:00,69.6,21.0,25.87,North,360,7.5,15.4,15,0.00,,,0.00,Rainwise IP-100,2013-03-14 20:14:00,
2013-03-14 14:19:00,69.8,21.0,25.87,WSW,247,11.7,12.1,15,0.00,,,0.00,Rainwise IP-100,2013-03-14 20:19:00,
2013-03-14 14:24:00,69.3,21.0,25.87,WSW,247,3.3,15.6,15,0.00,,,0.00,Rainwise IP-100,2013-03-14 20:24:00,
2013-03-14 14:29:00,69.2,21.0,25.87,WNW,292,2.3,10.0,15,0.00,,,0.00,Rainwise IP-100,2013-03-14 20:29:00,
2013-03-14 14:34:00,69.9,21.0,25.87,WNW,292,2.8,10.0,15,0.00,,,0.00,Rainwise IP-100,2013-03-14 20:34:00,
2013-03-14 14:39:00,70.6,21.0,25.87,North,360,2.3,7.5,15,0.00,,,0.00,Rainwise IP-100,2013-03-14 20:39:00,
2013-03-14 14:44:00,70.6,21.0,25.86,WNW,292,9.6,13.1,15,0.00,,,0.00,Rainwise IP-100,2013-03-14 20:44:00,
2013-03-14 14:49:00,70.0,21.0,25.86,NNW,337,1.9,12.8,15,0.00,,,0.00,Rainwise IP-100,2013-03-14 20:49:00,
2013-03-14 14:54:00,70.2,21.0,25.86,NNE,22,4.7,11.9,15,0.00,,,0.00,Rainwise IP-100,2013-03-14 20:54:00,
2013-03-14 14:59:00,70.9,21.0,25.86,NNW,337,11.4,11.4,15,0.00,,,0.00,Rainwise IP-100,2013-03-14 20:59:00,
2013-03-14 15:04:00,70.9,21.0,25.86,WNW,292,7.7,12.8,15,0.00,,,0.00,Rainwise IP-100,2013-03-14 21:04:00,
2013-03-14 15:09:00,70.2,21.0,25.86,NNW,337,9.6,12.6,15,0.00,,,0.00,Rainwise IP-100,2013-03-14 21:09:00,
2013-03-14 15:14:00,70.0,21.0,25.86,North,360,5.1,12.4,15,0.00,,,0.00,Rainwise IP-100,2013-03-14 21:14:00,
2013-03-14 15:19:00,70.6,21.0,25.85,West,270,3.5,7.0,15,0.00,,,0.00,Rainwise IP-100,2013-03-14 21:19:00,
2013-03-14 15:24:00,71.3,23.0,25.85,North,360,3.3,5.6,15,0.00,,,0.00,Rainwise IP-100,2013-03-14 21:24:00,
2013-03-14 15:29:00,71.2,23.0,25.85,WSW,247,9.3,12.1,15,0.00,,,0.00,Rainwise IP-100,2013-03-14 21:29:00,
2013-03-14 15:34:00,70.7,21.0,25.85,WNW,292,7.0,13.3,15,0.00,,,0.00,Rainwise IP-100,2013-03-14 21:34:00,
2013-03-14 15:39:00,70.3,21.0,25.85,NNW,337,3.5,11.7,15,0.00,,,0.00,Rainwise IP-100,2013-03-14 21:39:00,
2013-03-14 15:44:00,70.2,21.0,25.85,WSW,247,5.6,14.7,15,0.00,,,0.00,Rainwise IP-100,2013-03-14 21:44:00,
2013-03-14 15:49:00,70.2,21.0,25.85,West,270,10.0,15.4,15,0.00,,,0.00,Rainwise IP-100,2013-03-14 21:49:00,
2013-03-14 15:54:00,70.1,21.0,25.85,SSW,202,7.2,13.8,15,0.00,,,0.00,Rainwise IP-100,2013-03-14 21:54:00,
2013-03-14 15:59:00,69.8,21.0,25.85,WSW,247,9.6,13.5,15,0.00,,,0.00,Rainwise IP-100,2013-03-14 21:59:00,
2013-03-14 16:04:00,69.7,21.0,25.85,SSW,202,2.1,11.4,15,0.00,,,0.00,Rainwise IP-100,2013-03-14 22:04:00,
2013-03-14 16:09:00,70.3,21.0,25.85,West,270,6.1,13.8,15,0.00,,,0.00,Rainwise IP-100,2013-03-14 22:09:00,
2013-03-14 16:14:00,70.5,21.0,25.85,WNW,292,8.2,11.9,15,0.00,,,0.00,Rainwise IP-100,2013-03-14 22:14:00,
2013-03-14 16:19:00,70.4,21.0,25.84,West,270,4.9,15.6,15,0.00,,,0.00,Rainwise IP-100,2013-03-14 22:19:00,
2013-03-14 16:24:00,70.3,21.0,25.85,West,270,2.8,12.1,15,0.00,,,0.00,Rainwise IP-100,2013-03-14 22:24:00,
2013-03-14 16:29:00,70.0,21.0,25.85,WNW,292,4.2,13.1,15,0.00,,,0.00,Rainwise IP-100,2013-03-14 22:29:00,
2013-03-14 16:34:00,69.9,21.0,25.85,West,270,2.1,8.6,15,0.00,,,0.00,Rainwise IP-100,2013-03-14 22:34:00,
2013-03-14 16:39:00,70.3,21.0,25.85,NNW,337,2.1,10.0,15,0.00,,,0.00,Rainwise IP-100,2013-03-14 22:39:00,
2013-03-14 16:44:00,70.8,21.0,25.84,WSW,247,6.3,9.1,15,0.00,,,0.00,Rainwise IP-100,2013-03-14 22:44:00,
2013-03-14 16:49:00,70.8,21.0,25.84,WSW,247,7.9,10.5,15,0.00,,,0.00,Rainwise IP-100,2013-03-14 22:49:00,
2013-03-14 16:54:00,70.3,21.0,25.84,WNW,292,3.0,9.3,15,0.00,,,0.00,Rainwise IP-100,2013-03-14 22:54:00,
2013-03-14 16:59:00,70.5,21.0,25.84,NNW,337,1.9,6.1,15,0.00,,,0.00,Rainwise IP-100,2013-03-14 22:59:00,
2013-03-14 17:04:00,70.9,21.0,25.83,NNW,337,5.6,5.6,15,0.00,,,0.00,Rainwise IP-100,2013-03-14 23:04:00,
2013-03-14 17:09:00,71.2,21.0,25.83,NNE,22,0.0,7.5,14,0.00,,,0.00,Rainwise IP-100,2013-03-14 23:09:00,
2013-03-14 17:14:00,71.7,21.0,25.83,NNW,337,1.2,5.1,14,0.00,,,0.00,Rainwise IP-100,2013-03-14 23:14:00,
2013-03-14 17:19:00,71.2,21.0,25.83,ENE,67,2.3,4.0,14,0.00,,,0.00,Rainwise IP-100,2013-03-14 23:19:00,
2013-03-14 17:24:00,70.6,21.0,25.83,NNE,22,0.0,4.2,14,0.00,,,0.00,Rainwise IP-100,2013-03-14 23:24:00,
2013-03-14 17:29:00,71.3,21.0,25.83,SSE,157,1.2,2.6,14,0.00,,,0.00,Rainwise IP-100,2013-03-14 23:29:00,
2013-03-14 17:34:00,71.3,21.0,25.82,North,360,2.1,2.1,14,0.00,,,0.00,Rainwise IP-100,2013-03-14 23:34:00,
2013-03-14 17:39:00,71.3,21.0,25.82,West,270,4.9,4.9,14,0.00,,,0.00,Rainwise IP-100,2013-03-14 23:39:00,
2013-03-14 17:44:00,71.7,21.0,25.82,WSW,247,6.8,6.8,14,0.00,,,0.00,Rainwise IP-100,2013-03-14 23:44:00,
2013-03-14 17:49:00,70.9,21.0,25.82,South,180,7.5,11.4,14,0.00,,,0.00,Rainwise IP-100,2013-03-14 23:49:00,
2013-03-14 17:54:00,70.0,21.0,25.82,SW,225,8.9,9.1,15,0.00,,,0.00,Rainwise IP-100,2013-03-14 23:54:00,
2013-03-14 17:59:00,69.9,21.0,25.82,SW,225,6.3,9.6,15,0.00,,,0.00,Rainwise IP-100,2013-03-14 23:59:00,
2013-03-14 18:04:00,69.9,23.0,25.83,SSW,202,5.8,8.2,16,0.00,,,0.00,Rainwise IP-100,2013-03-15 00:04:00,
2013-03-14 18:09:00,69.6,23.0,25.82,SSW,202,9.1,10.0,16,0.00,,,0.00,Rainwise IP-100,2013-03-15 00:09:00,
2013-03-14 18:14:00,69.2,23.0,25.82,South,180,4.7,12.4,16,0.00,,,0.00,Rainwise IP-100,2013-03-15 00:14:00,
2013-03-14 18:19:00,68.8,23.0,25.82,SSW,202,6.8,10.3,17,0.00,,,0.00,Rainwise IP-100,2013-03-15 00:19:00,
2013-03-14 18:24:00,68.3,23.0,25.82,SSW,202,6.3,9.1,17,0.00,,,0.00,Rainwise IP-100,2013-03-15 00:24:00,
2013-03-14 18:29:00,67.8,23.0,25.82,SSW,202,2.3,8.2,17,0.00,,,0.00,Rainwise IP-100,2013-03-15 00:29:00,
2013-03-14 18:34:00,67.2,23.0,25.82,South,180,4.0,8.9,18,0.00,,,0.00,Rainwise IP-100,2013-03-15 00:34:00,
2013-03-14 18:39:00,66.6,23.0,25.83,SSW,202,3.7,6.3,18,0.00,,,0.00,Rainwise IP-100,2013-03-15 00:39:00,
2013-03-14 18:44:00,65.8,23.0,25.83,SSW,202,4.2,7.2,18,0.00,,,0.00,Rainwise IP-100,2013-03-15 00:44:00,
2013-03-14 18:49:00,64.9,23.0,25.83,SSW,202,3.3,5.8,19,0.00,,,0.00,Rainwise IP-100,2013-03-15 00:49:00,
2013-03-14 18:54:00,64.2,21.0,25.83,SSW,202,6.1,7.7,19,0.00,,,0.00,Rainwise IP-100,2013-03-15 00:54:00,
2013-03-14 18:59:00,63.6,23.0,25.83,SSW,202,5.8,9.8,20,0.00,,,0.00,Rainwise IP-100,2013-03-15 00:59:00,
2013-03-14 19:04:00,63.3,23.0,25.83,WSW,247,4.9,8.9,20,0.00,,,0.00,Rainwise IP-100,2013-03-15 01:04:00,
2013-03-14 19:09:00,63.0,23.0,25.83,SSW,202,3.5,7.9,20,0.00,,,0.00,Rainwise IP-100,2013-03-15 01:09:00,
2013-03-14 19:14:00,62.1,23.0,25.83,SSW,202,5.8,8.2,21,0.00,,,0.00,Rainwise IP-100,2013-03-15 01:14:00,
2013-03-14 19:19:00,61.1,21.0,25.83,SSW,202,3.7,8.9,21,0.00,,,0.00,Rainwise IP-100,2013-03-15 01:19:00,
2013-03-14 19:24:00,60.6,23.0,25.83,SSW,202,7.0,8.6,22,0.00,,,0.00,Rainwise IP-100,2013-03-15 01:24:00,
2013-03-14 19:29:00,60.3,23.0,25.83,SSW,202,4.2,7.0,22,0.00,,,0.00,Rainwise IP-100,2013-03-15 01:29:00,
2013-03-14 19:34:00,59.9,23.0,25.84,SSW,202,5.6,7.7,23,0.00,,,0.00,Rainwise IP-100,2013-03-15 01:34:00,
2013-03-14 19:39:00,59.3,23.0,25.83,SSW,202,3.7,8.2,23,0.00,,,0.00,Rainwise IP-100,2013-03-15 01:39:00,
2013-03-14 19:45:00,58.7,23.0,25.83,SSW,202,3.7,8.6,23,0.00,,,0.00,Rainwise IP-100,2013-03-15 01:45:00,
2013-03-14 19:50:00,58.2,23.0,25.83,SSW,202,5.1,8.4,24,0.00,,,0.00,Rainwise IP-100,2013-03-15 01:50:00,
2013-03-14 19:55:00,57.6,23.0,25.83,SSW,202,3.0,6.5,24,0.00,,,0.00,Rainwise IP-100,2013-03-15 01:55:00,
2013-03-14 20:00:00,57.1,23.0,25.83,SSW,202,5.1,7.7,25,0.00,,,0.00,Rainwise IP-100,2013-03-15 02:00:00,
2013-03-14 20:05:00,57.1,23.0,25.83,SSW,202,3.3,8.6,26,0.00,,,0.00,Rainwise IP-100,2013-03-15 02:05:00,
2013-03-14 20:10:00,57.3,23.0,25.83,WSW,247,5.8,8.6,26,0.00,,,0.00,Rainwise IP-100,2013-03-15 02:10:00,
2013-03-14 20:15:00,57.2,23.0,25.83,WSW,247,6.3,7.7,26,0.00,,,0.00,Rainwise IP-100,2013-03-15 02:15:00,
2013-03-14 20:20:00,56.7,23.0,25.83,WSW,247,4.4,7.5,26,0.00,,,0.00,Rainwise IP-100,2013-03-15 02:20:00,
2013-03-14 20:25:00,56.2,23.0,25.83,SW,225,4.9,7.5,26,0.00,,,0.00,Rainwise IP-100,2013-03-15 02:25:00,
2013-03-14 20:30:00,56.0,23.0,25.83,WSW,247,5.4,8.4,27,0.00,,,0.00,Rainwise IP-100,2013-03-15 02:30:00,
2013-03-14 20:35:00,55.7,23.0,25.83,WSW,247,6.3,6.8,27,0.00,,,0.00,Rainwise IP-100,2013-03-15 02:35:00,
2013-03-14 20:40:00,55.2,23.0,25.83,WSW,247,2.6,6.3,27,0.00,,,0.00,Rainwise IP-100,2013-03-15 02:40:00,
2013-03-14 20:45:00,54.7,23.0,25.83,WSW,247,3.5,5.4,28,0.00,,,0.00,Rainwise IP-100,2013-03-15 02:45:00,
2013-03-14 20:50:00,54.5,23.0,25.83,WSW,247,3.5,6.3,28,0.00,,,0.00,Rainwise IP-100,2013-03-15 02:50:00,
2013-03-14 20:55:00,54.7,23.0,25.83,SSW,202,2.3,6.3,29,0.00,,,0.00,Rainwise IP-100,2013-03-15 02:55:00,
2013-03-14 21:00:00,55.0,24.0,25.83,SW,225,4.0,6.8,29,0.00,,,0.00,Rainwise IP-100,2013-03-15 03:00:00,
2013-03-14 21:05:00,54.9,24.0,25.83,WSW,247,3.3,5.8,29,0.00,,,0.00,Rainwise IP-100,2013-03-15 03:05:00,
2013-03-14 21:10:00,54.5,23.0,25.83,West,270,2.1,5.8,29,0.00,,,0.00,Rainwise IP-100,2013-03-15 03:10:00,
2013-03-14 21:15:00,53.4,23.0,25.83,West,270,1.9,4.4,29,0.00,,,0.00,Rainwise IP-100,2013-03-15 03:15:00,
2013-03-14 21:20:00,52.3,23.0,25.83,WSW,247,1.9,3.7,30,0.00,,,0.00,Rainwise IP-100,2013-03-15 03:20:00,
2013-03-14 21:25:00,52.4,23.0,25.83,WSW,247,3.7,3.7,31,0.00,,,0.00,Rainwise IP-100,2013-03-15 03:25:00,
2013-03-14 21:30:00,53.0,23.0,25.83,WSW,247,1.9,4.0,31,0.00,,,0.00,Rainwise IP-100,2013-03-15 03:30:00,
2013-03-14 21:35:00,53.3,24.0,25.82,SSW,202,2.1,3.3,31,0.00,,,0.00,Rainwise IP-100,2013-03-15 03:35:00,
2013-03-14 21:40:00,53.8,24.0,25.82,South,180,4.0,4.4,30,0.00,,,0.00,Rainwise IP-100,2013-03-15 03:40:00,
2013-03-14 21:45:00,54.1,24.0,25.83,WSW,247,4.0,11.2,30,0.00,,,0.00,Rainwise IP-100,2013-03-15 03:45:00,
2013-03-14 21:50:00,54.0,24.0,25.82,SW,225,3.7,7.7,30,0.00,,,0.00,Rainwise IP-100,2013-03-15 03:50:00,
2013-03-14 21:55:00,53.9,24.0,25.82,WSW,247,5.1,5.8,30,0.00,,,0.00,Rainwise IP-100,2013-03-15 03:55:00,
2013-03-14 22:00:00,53.4,23.0,25.82,WSW,247,4.4,5.8,30,0.00,,,0.00,Rainwise IP-100,2013-03-15 04:00:00,
2013-03-14 22:05:00,52.5,23.0,25.82,WSW,247,3.7,4.9,31,0.00,,,0.00,Rainwise IP-100,2013-03-15 04:05:00,
2013-03-14 22:10:00,52.1,23.0,25.82,WSW,247,1.6,4.0,32,0.00,,,0.00,Rainwise IP-100,2013-03-15 04:10:00,
2013-03-14 22:11:00,52.0,23.0,25.82,WSW,247,2.1,3.5,32,0.00,,,0.00,Rainwise IP-100,2013-03-15 04:11:00,
2013-03-14 22:16:00,51.6,23.0,25.82,WNW,292,4.0,4.7,32,0.00,,,0.00,Rainwise IP-100,2013-03-15 04:16:00,
2013-03-14 22:21:00,50.6,23.0,25.82,WNW,292,4.7,4.7,33,0.00,,,0.00,Rainwise IP-100,2013-03-15 04:21:00,
2013-03-14 22:26:00,49.2,23.0,25.82,WNW,292,4.9,5.6,34,0.00,,,0.00,Rainwise IP-100,2013-03-15 04:26:00,
2013-03-14 22:31:00,48.1,23.0,25.82,WNW,292,4.4,5.1,36,0.00,,,0.00,Rainwise IP-100,2013-03-15 04:31:00,
2013-03-14 22:36:00,48.1,23.0,25.82,WNW,292,3.5,4.9,36,0.00,,,0.00,Rainwise IP-100,2013-03-15 04:36:00,
2013-03-14 22:41:00,48.0,24.0,25.82,WNW,292,4.4,4.7,37,0.00,,,0.00,Rainwise IP-100,2013-03-15 04:41:00,
2013-03-14 22:46:00,47.4,23.0,25.82,NNW,337,2.3,4.7,37,0.00,,,0.00,Rainwise IP-100,2013-03-15 04:46:00,
2013-03-14 22:51:00,45.8,23.0,25.82,NE,45,3.7,3.7,38,0.00,,,0.00,Rainwise IP-100,2013-03-15 04:51:00,
2013-03-14 22:56:00,44.6,23.0,25.82,NNE,22,3.0,4.2,39,0.00,,,0.00,Rainwise IP-100,2013-03-15 04:56:00,
2013-03-14 23:01:00,45.1,23.0,25.82,North,360,1.9,3.5,41,0.00,,,0.00,Rainwise IP-100,2013-03-15 05:01:00,
2013-03-14 23:06:00,46.0,24.0,25.82,North,360,2.1,3.3,41,0.00,,,0.00,Rainwise IP-100,2013-03-15 05:06:00,
2013-03-14 23:11:00,46.6,24.0,25.82,NNW,337,0.0,2.8,40,0.00,,,0.00,Rainwise IP-100,2013-03-15 05:11:00,
2013-03-14 23:16:00,46.7,24.0,25.82,North,360,3.0,3.5,40,0.00,,,0.00,Rainwise IP-100,2013-03-15 05:16:00,
2013-03-14 23:21:00,46.7,24.0,25.82,NNW,337,2.8,3.7,40,0.00,,,0.00,Rainwise IP-100,2013-03-15 05:21:00,
2013-03-14 23:26:00,46.9,24.0,25.82,NNW,337,3.7,4.4,40,0.00,,,0.00,Rainwise IP-100,2013-03-15 05:26:00,
2013-03-14 23:31:00,47.3,24.0,25.81,NNW,337,3.0,4.4,40,0.00,,,0.00,Rainwise IP-100,2013-03-15 05:31:00,
2013-03-14 23:36:00,47.6,24.0,25.81,WNW,292,2.6,3.7,39,0.00,,,0.00,Rainwise IP-100,2013-03-15 05:36:00,
2013-03-14 23:41:00,47.9,24.0,25.81,NW,315,3.0,4.7,39,0.00,,,0.00,Rainwise IP-100,2013-03-15 05:41:00,
2013-03-14 23:46:00,47.6,24.0,25.81,NNW,337,2.3,3.7,39,0.00,,,0.00,Rainwise IP-100,2013-03-15 05:46:00,
2013-03-14 23:51:00,46.9,24.0,25.81,NNW,337,3.7,3.7,40,0.00,,,0.00,Rainwise IP-100,2013-03-15 05:51:00,
2013-03-14 23:56:00,46.6,24.0,25.81,NW,315,4.4,5.1,40,0.00,,,0.00,Rainwise IP-100,2013-03-15 05:56:00,